Location: Bun Machan
(52.1403°N, 7.3744°W)
Time: 17:38:59
(UTC+00:00)

Cosmos 1933 Rocket - Pass Details

Date: 14 July 2020
Orbit: 607 x 629 km, 82.5° (Epoch: 13 August)

Event Time Altitude Azimuth Distance (km) Brightness Sun altitude
Exits shadow 02:00:33 23° 209° (SSW) 1,320 4.6 -13.9°
Maximum altitude 02:03:10 61° 284° (WNW) 698 3.7 -13.8°
Drops below altitude 10° 02:07:30 10° 5° (N) 1,977 7.4 -13.5°
Sets 02:09:46 0° 9° (N) 2,889 8.7 -13.4°
